[[{"header":{"parameterUnit":"m.s-1","parameterCategory":1,"la1":30.2991,"la2":30.254,"lo1":-89.0895,"lo2":-89.0444,"dy":0.0017,"dx":0.0017,"nx":28,"ny":28,"refTime":"2023-10-16T09:00:00:Z","depth":0,"parameterNumber":2,"parameterNumberName":"U-component_of_WINDS"},"data":[0,0,0,0,0,0,0,0,0,0,0,0,0,0,0,0,0,0,0,0,0,0,0,0,0,0,0,0,0,0,0,0,0,0,0,0,0,0,0,0,0,0,0,0,0,0,0,0,0,0,0,0,0,0,0,0,0,0,2.0352,2.0351,0,2.0318,2.0317,2.0317,2.0298,2.0298,2.0298,2.0298,2.0259,2.0258,2.0258,0,0,0,0,0,0,0,0,0,0,0,0,0,2.0397,2.0396,2.0352,2.0351,2.0351,2.0318,2.0317,2.0317,2.0298,2.0298,2.0298,2.0298,2.026,2.0259,2.0257,0,0,0,0,0,0,0,0,0,0,0,0,0,2.0371,2.0396,2.0352,2.0337,2.0336,2.0318,2.0317,2.0317,2.0298,2.0298,2.0298,2.0298,2.026,2.0259,2.0257,2.025,0,0,2.0253,2.0252,0,0,0,0,0,0,0,0,2.0373,2.037,2.034,2.0338,2.0337,2.0312,2.0319,2.0294,2.0298,2.0312,2.0298,2.0298,2.0277,2.0274,2.0268,2.0248,2.0246,2.0253,2.0252,2.0251,2.0251,0,0,0,0,0,0,0,2.0375,2.0371,2.0338,2.034,2.0337,2.0332,2.0328,2.0314,2.0295,2.0311,2.031,2.0306,2.0276,2.0269,2.0267,2.0246,2.0253,2.0251,2.025,2.025,2.0218,2.0218,0,0,0,0,0,0,2.0379,2.0373,2.0339,2.0337,2.0355,2.0331,2.0327,2.032,2.0295,2.0292,2.0306,2.0305,2.0272,2.0268,2.0265,2.0254,2.0251,2.025,2.0249,2.0218,2.0218,2.0218,0,0,0,0,0,0,2.038,2.0376,2.0341,2.0355,2.035,2.033,2.0323,2.0319,2.0313,2.0292,2.0288,2.0303,2.0271,2.0267,2.0254,2.0253,2.0249,2.0248,2.0218,2.0218,2.0218,2.0233,0,0,0,0,0,0,2.0382,2.0377,2.0375,2.0355,2.0349,2.0331,2.0323,2.0319,2.0311,2.0309,2.0288,2.0284,2.0271,2.0256,2.0252,2.0251,2.0247,2.0218,2.0218,2.0218,2.0233,2.0234,2.0235,0,0,0,0,0,2.0383,2.0379,2.0375,2.0371,2.0346,2.0331,2.0327,2.0314,2.0311,2.0308,2.0294,2.0285,2.0254,2.0255,2.0251,2.0249,2.0218,2.0218,2.0218,2.0232,2.0234,2.0235,0,0,0,0,0,0,2.0398,2.0377,2.0371,2.0361,2.0348,2.0328,2.0323,2.0315,2.0302,2.0301,2.0284,2.0279,2.0267,2.0256,2.0258,2.024,2.0235,2.0234,2.0247,2.0248,2.0249,2.0252,2.0245,0,0,0,0,0,2.0401,2.0392,2.0373,2.0365,2.036,2.0343,2.0336,2.0326,2.0312,2.0306,2.0292,2.0277,2.0264,2.0256,2.0242,2.0231,2.0226,2.0228,2.0229,2.023,2.0229,2.0222,2.0223,2.0218,2.0218,2.0218,0,0,2.0405,2.0392,2.0387,2.0368,2.0357,2.0347,2.0338,2.0328,2.032,2.0304,2.0291,2.028,2.0262,2.025,2.0244,2.0241,2.0229,2.023,2.0231,2.0229,2.0222,2.0223,2.0223,2.0218,2.0218,2.0218,0,0,2.0408,2.0397,2.039,2.038,2.0364,2.0353,2.0351,2.0332,2.0325,2.0312,2.0299,2.0289,2.0267,2.0255,2.0246,2.0245,2.0236,2.0241,2.0246,2.024,2.024,2.0241,2.024,2.024,2.0241,2.0241,2.0241,0,2.0415,2.04,2.0387,2.0378,2.037,2.0356,2.0348,2.0338,2.0318,2.0313,2.031,2.0282,2.0269,2.0254,2.0254,2.0247,2.0244,2.0243,2.0242,2.0242,2.0242,2.0241,2.024,2.0242,2.0242,2.0242,2.0241,0,2.041,2.04,2.0396,2.0378,2.037,2.0361,2.0346,2.0338,2.033,2.0319,2.0305,2.029,2.0273,2.0269,2.026,2.0253,2.0251,2.0245,2.0239,2.0243,2.0242,2.0241,2.0243,2.0242,2.0242,2.0242,0,0,2.042,2.0396,2.0395,2.0387,2.0369,2.036,2.0351,2.0336,2.033,2.0316,2.0307,2.029,2.0284,2.0274,2.0264,2.0258,2.0258,2.0253,2.0252,2.0254,2.0248,2.0253,2.0252,2.0252,2.0252,2.0252,2.025,0,2.042,2.0404,2.0392,2.038,2.037,2.0357,2.0349,2.0336,2.0326,2.0315,2.0303,2.0291,2.0285,2.0279,2.0273,2.0259,2.0256,2.0259,2.0242,2.0242,2.0247,2.0252,2.0256,2.0255,2.0249,2.0249,2.0249,0,2.0417,2.0406,2.0393,2.0376,2.0372,2.0365,2.035,2.0341,2.0326,2.0318,2.0308,2.0297,2.0286,2.0282,2.0265,2.0268,2.026,2.0253,2.0252,2.0249,2.0245,2.0249,2.0254,2.0254,2.0248,2.0248,2.0248,0,2.0426,2.0407,2.0397,2.0391,2.0371,2.0366,2.0357,2.0342,2.0334,2.0321,2.0316,2.0301,2.0293,2.0281,2.0267,2.0266,2.0252,2.0247,2.0245,2.0245,2.0242,2.0242,2.0246,2.0238,2.0238,2.0238,2.0238,0,2.0427,2.0419,2.0401,2.0395,2.0386,2.0372,2.0363,2.0353,2.034,2.0331,2.0319,2.031,2.0292,2.0281,2.027,2.0258,2.0254,2.0247,2.0244,2.0248,2.0249,2.0242,2.0242,2.0238,2.0238,2.0238,2.0238,0,2.0435,2.0422,2.041,2.0393,2.0388,2.0382,2.0367,2.036,2.0349,2.0338,2.0334,2.0317,2.0303,2.0288,2.0269,2.0261,2.025,2.0246,2.0255,2.0253,2.0252,2.0252,2.0251,2.025,2.0244,2.0244,2.0244,0,2.0436,2.043,2.0412,2.0406,2.0398,2.0387,2.0379,2.0365,2.0357,2.034,2.0335,2.0321,2.0309,2.0288,2.0273,2.0258,2.0253,2.0254,2.0251,2.0255,2.0253,2.0253,2.0252,2.0255,2.0255,2.0255,2.0255,0,2.0439,2.0433,2.0423,2.041,2.0401,2.0391,2.0379,2.0374,2.0358,2.0349,2.0336,2.0327,2.0308,2.0294,2.0278,2.0267,2.0258,2.0256,2.0255,2.0258,2.0264,2.0261,2.0257,2.0256,2.0256,2.0256,2.0256,2.0256,2.0443,2.0437,2.0424,2.0413,2.0403,2.0393,2.0385,2.0374,2.0363,2.0348,2.034,2.0327,2.0312,2.0289,2.0279,2.0268,2.0265,2.0263,2.0263,2.0262,2.0263,2.0267,2.0265,2.0265,2.0265,2.0265,2.0265,0,2.0445,2.0436,2.0426,2.0411,2.0402,2.0396,2.0383,2.0375,2.0364,2.0352,2.034,2.0325,2.0311,2.0296,2.0281,2.0275,2.027,2.0271,2.0271,2.0269,2.0267,2.0269,2.0275,2.0275,2.0275,2.0275,2.0275,2.0275,2.0445,2.0435,2.0428,2.0413,2.0403,2.0391,2.0384,2.0374,2.0364,2.0348,2.0337,2.0328,2.0314,2.0298,2.0285,2.0281,2.0275,2.0278,2.0272,2.027,2.0269,2.0268,2.0271,2.0277,2.0277,2.0275,2.0275,2.0275]},{"header":{"parameterUnit":"m.s-1","parameterCategory":1,"la1":30.2991,"la2":30.254,"lo1":-89.0895,"lo2":-89.0444,"dy":0.0017,"dx":0.0017,"nx":28,"ny":28,"refTime":"2023-10-16T09:00:00:Z","depth":0,"parameterNumber":3,"parameterNumberName":"V-component_of_WINDS"},"data":[0,0,0,0,0,0,0,0,0,0,0,0,0,0,0,0,0,0,0,0,0,0,0,0,0,0,0,0,0,0,0,0,0,0,0,0,0,0,0,0,0,0,0,0,0,0,0,0,0,0,0,0,0,0,0,0,0,0,-6.0909,-6.0911,0,-6.1091,-6.1093,-6.1095,-6.1011,-6.1006,-6.1001,-6.0997,-6.118,-6.1188,-6.1197,0,0,0,0,0,0,0,0,0,0,0,0,0,-6.0486,-6.0495,-6.0909,-6.0911,-6.0913,-6.109,-6.1093,-6.1095,-6.1011,-6.1006,-6.1,-6.0995,-6.1177,-6.1187,-6.1198,0,0,0,0,0,0,0,0,0,0,0,0,0,-6.0669,-6.0497,-6.0908,-6.0893,-6.0893,-6.109,-6.1093,-6.1096,-6.1013,-6.1006,-6.0999,-6.0992,-6.1173,-6.1186,-6.12,-6.1421,0,0,-6.1242,-6.1247,0,0,0,0,0,0,0,0,-6.0659,-6.0685,-6.0893,-6.0894,-6.0895,-6.1021,-6.1011,-6.1205,-6.1014,-6.0967,-6.0997,-6.0989,-6.1132,-6.1149,-6.1198,-6.143,-6.1438,-6.1243,-6.1251,-6.1257,-6.1261,0,0,0,0,0,0,0,-6.0646,-6.0676,-6.0981,-6.0896,-6.0897,-6.0876,-6.0894,-6.1047,-6.1086,-6.0971,-6.0965,-6.0988,-6.1131,-6.1185,-6.1201,-6.144,-6.1242,-6.1255,-6.1263,-6.1268,-6.1865,-6.1872,0,0,0,0,0,0,-6.0635,-6.0666,-6.0975,-6.0986,-6.0758,-6.0889,-6.091,-6.0987,-6.1084,-6.1092,-6.0994,-6.0983,-6.1165,-6.1186,-6.1207,-6.1475,-6.1257,-6.127,-6.1277,-6.1857,-6.1867,-6.1875,0,0,0,0,0,0,-6.0626,-6.0663,-6.0968,-6.0825,-6.0862,-6.0904,-6.0992,-6.0995,-6.1048,-6.1101,-6.1107,-6.1041,-6.116,-6.1188,-6.1369,-6.148,-6.1276,-6.1288,-6.1848,-6.186,-6.1871,-6.201,0,0,0,0,0,0,-6.0614,-6.066,-6.0745,-6.0828,-6.087,-6.1128,-6.0998,-6.1003,-6.1072,-6.1061,-6.1148,-6.1155,-6.1157,-6.135,-6.1383,-6.1495,-6.1299,-6.1839,-6.1854,-6.1867,-6.1996,-6.2025,-6.205,0,0,0,0,0,-6.0599,-6.0776,-6.075,-6.0788,-6.0978,-6.1134,-6.1158,-6.1158,-6.1081,-6.1167,-6.1202,-6.1153,-6.1462,-6.1369,-6.1406,-6.1524,-6.1832,-6.1849,-6.1866,-6.1984,-6.2019,-6.2049,0,0,0,0,0,0,-6.0704,-6.0786,-6.0759,-6.0967,-6.1045,-6.112,-6.1228,-6.1195,-6.1294,-6.1279,-6.1273,-6.1293,-6.1482,-6.152,-6.1415,-6.1744,-6.1635,-6.1661,-6.1712,-6.1746,-6.1773,-6.176,-6.131,0,0,0,0,0,-6.0752,-6.0873,-6.0938,-6.1116,-6.1156,-6.1186,-6.1254,-6.1247,-6.1326,-6.1358,-6.1405,-6.1483,-6.1598,-6.1674,-6.1782,-6.2001,-6.2019,-6.21,-6.2127,-6.2149,-6.2171,-6.2291,-6.2328,-6.1931,-6.1931,-6.1931,0,0,-6.0851,-6.0911,-6.0988,-6.1139,-6.1198,-6.1323,-6.1214,-6.135,-6.1444,-6.1378,-6.1553,-6.1591,-6.1677,-6.1879,-6.197,-6.1917,-6.2285,-6.2171,-6.2188,-6.2198,-6.2313,-6.235,-6.2384,-6.1943,-6.1941,-6.1939,0,0,-6.1097,-6.1154,-6.1309,-6.1371,-6.1463,-6.1481,-6.1519,-6.16,-6.1623,-6.1799,-6.1753,-6.1863,-6.206,-6.2125,-6.2183,-6.2455,-6.2414,-6.249,-6.2632,-6.2749,-6.278,-6.2808,-6.2906,-6.2942,-6.2512,-6.2512,-6.2513,0,-6.1208,-6.1397,-6.1393,-6.1535,-6.1603,-6.1551,-6.1709,-6.1769,-6.1891,-6.1939,-6.1878,-6.2126,-6.2181,-6.2397,-6.2464,-6.2512,-6.2555,-6.2481,-6.2776,-6.2804,-6.283,-6.2924,-6.2961,-6.2521,-6.252,-6.2519,-6.2518,0,-6.153,-6.1661,-6.1776,-6.1897,-6.1978,-6.2127,-6.2146,-6.2228,-6.2214,-6.2239,-6.2419,-6.2483,-6.2605,-6.2655,-6.2642,-6.2871,-6.2835,-6.2776,-6.2666,-6.2876,-6.2965,-6.3,-6.2534,-6.2531,-6.2528,-6.2526,0,0,-6.1847,-6.1966,-6.2008,-6.2063,-6.2161,-6.2262,-6.2408,-6.2529,-6.26,-6.2686,-6.2809,-6.2978,-6.2925,-6.2991,-6.2985,-6.3088,-6.3301,-6.3015,-6.3017,-6.3068,-6.3559,-6.3605,-6.3646,-6.3274,-6.3281,-6.3286,-6.3552,0,-6.2101,-6.2359,-6.2361,-6.2599,-6.2721,-6.2674,-6.2802,-6.2876,-6.2903,-6.301,-6.3039,-6.3161,-6.3079,-6.312,-6.3219,-6.3254,-6.34,-6.3235,-6.3389,-6.3395,-6.3371,-6.3692,-6.3741,-6.3989,-6.3587,-6.3592,-6.3597,0,-6.2432,-6.2531,-6.2782,-6.2863,-6.2914,-6.303,-6.3141,-6.3244,-6.3326,-6.3339,-6.3415,-6.3393,-6.3543,-6.3429,-6.3635,-6.3522,-6.3585,-6.3612,-6.3622,-6.3637,-6.351,-6.3718,-6.4067,-6.4105,-6.3651,-6.3646,-6.3642,0,-6.264,-6.2835,-6.3011,-6.306,-6.3159,-6.3241,-6.3286,-6.3362,-6.3435,-6.3532,-6.3579,-6.3692,-6.3754,-6.3841,-6.3851,-6.3766,-6.4059,-6.3945,-6.4074,-6.4074,-6.4139,-6.4135,-6.4505,-6.4177,-6.4177,-6.4176,-6.4175,0,-6.2924,-6.308,-6.3107,-6.3215,-6.3388,-6.3389,-6.356,-6.3597,-6.3666,-6.3781,-6.3746,-6.3854,-6.3859,-6.397,-6.3978,-6.4149,-6.4176,-6.4191,-6.4192,-6.4196,-6.4194,-6.4238,-6.4221,-6.4186,-6.4184,-6.4182,-6.418,0,-6.3187,-6.3211,-6.34,-6.3479,-6.3502,-6.3627,-6.3694,-6.3798,-6.3822,-6.3968,-6.4002,-6.404,-6.4169,-6.4187,-6.4337,-6.4343,-6.4548,-6.453,-6.4521,-6.4519,-6.4648,-6.4637,-6.5061,-6.5117,-6.4751,-6.4754,-6.4757,0,-6.3367,-6.3487,-6.3579,-6.3655,-6.3705,-6.3826,-6.39,-6.3905,-6.3984,-6.4089,-6.418,-6.4306,-6.4407,-6.4615,-6.4656,-6.4771,-6.4756,-6.4896,-6.4773,-6.4774,-6.476,-6.4754,-6.4767,-6.4921,-6.4925,-6.4928,-6.4931,0,-6.3686,-6.3693,-6.3803,-6.3918,-6.4009,-6.4099,-6.4184,-6.4247,-6.4263,-6.4354,-6.4486,-6.4565,-6.472,-6.4845,-6.496,-6.5005,-6.4972,-6.4969,-6.5006,-6.5011,-6.5002,-6.5011,-6.4588,-6.496,-6.4957,-6.4955,-6.4953,-6.4952,-6.3915,-6.4019,-6.4102,-6.4226,-6.4291,-6.4372,-6.4473,-6.4511,-6.4622,-6.475,-6.4745,-6.4892,-6.4972,-6.5122,-6.5176,-6.529,-6.5244,-6.5296,-6.5309,-6.5323,-6.5337,-6.4983,-6.531,-6.5309,-6.5309,-6.5308,-6.5307,0,-6.4234,-6.4285,-6.4399,-6.452,-6.4618,-6.4579,-6.4671,-6.4756,-6.4885,-6.4964,-6.5065,-6.5218,-6.534,-6.5391,-6.551,-6.5592,-6.558,-6.5624,-6.5618,-6.563,-6.537,-6.5328,-6.5632,-6.5632,-6.5631,-6.5631,-6.5631,-6.5631,-6.4411,-6.4587,-6.4603,-6.4811,-6.486,-6.5004,-6.5061,-6.5135,-6.5198,-6.5371,-6.5473,-6.5506,-6.5574,-6.5699,-6.5809,-6.5821,-6.5867,-6.5919,-6.5924,-6.568,-6.5648,-6.5616,-6.5577,-6.5928,-6.5929,-6.6174,-6.6177,-6.6178]}]]